WESTFORD NEEDLES, 2375

Orbit data source: Space-Track

WESTFORD NEEDLES, 2375 is space debris in LEO originally from a launch on Thu, 09 May 1963 UTC launched from the Air Force Western Test Range (AFWTR). Debris objects in space refer to the collection of defunct objects orbiting the Earth. Examples of debris include non-operational satellites, rocket bodies, and fragments generated from explosions, collisions, or faulty payload assembly.

Loading next visibility...
Identifier
2375, 1963-014W
Orbit
LEO
Country
Flag of USUS
Related business
Manufacturer
Unknown
Mission
Spacecraft
Bus & Motor
Unknown
Mass
Unknown
Launch date (UTC)
1963-05-09 (63 years ago)
Launch vehicle
Unknown
Launch site
Air Force Western Test Range (AFWTR)
Object type
Payload
Rocket body
Debris
Shape & HBR
Unknown shape, 0.3 m
Radar Cross Section
Medium (>0.1 m² and <1 m²)

Expand to show TLE details & history
Last TLE update: 2 days ago

TLE from 2 days ago
0 WESTFORD NEEDLES
1 02375U 63014W   25309.38864440 -.00001685  00000-0 -18889+0 0  9992
2 02375  86.5003  82.5258 1625616  63.1926 312.5850  8.74885306351850
Epoch: 2025-11-05T09:19Z
TLE epoch observation values (Epoch: 2025-11-05T09:19:38.876Z)
Latitude
-0.00002°
Longitude
-102.24821°
Altitude
2,646.177 km
Speed
6.95 km/s
True Right ascension
05h 30m 06s
True Declination
0° 00' 00"
Sunlit
Object was in full shadow at epoch
Visualization orbit readout
Latitude
Unknown
Longitude
Unknown
Altitude
Unknown
Speed
Unknown
Apparent Right ascension
Unknown
Apparent Declination
Unknown
Sunlit
N/A
Visualization observer readout
Local Sidereal Time
08:07:23
Azimuth
Unknown
Elevation
Unknown
Doppler factor
Unknown
Orbital elements
Apogee altitude
5,185.236 km
Perigee altitude
1,951.411 km
Semi-major axis
9,946.461 km
Eccentricity
0.16256
Inclination
86.5003°
RAAN
82.5258°
Arg. of periapsis
63.1926°
True anomaly
296.90069°
Mean anomaly
312.585°
Eccentric anomaly
304.95075°
Mean motion
2.18796 °/min
Orbital period
164.54 mins
BSTAR
-0.18889
Loading maneuver chart data...
Computing Atmospheric mass density...
Loading historical data...
Loading historical data...
Loading historical data...
Loading historical data...
Loading historical data...
Loading historical data...
Loading historical data...

Documentation

Showing up to 5 results
|